Tracking 25709 objects as of 23-May-2022
HD Live streaming from Space Station
objects crossing your sky now

LEMUR-2-DAYWZAGOODDAY

Track LEMUR-2-DAYWZAGOODDAY now!
10-day predictions
LEMUR-2-DAYWZAGOODDAY is classified as:


NORAD ID: 46501
Int'l Code: 2020-068R
Perigee: 547.1 km
Apogee: 566.5 km
Inclination: 97.7 °
Period: 95.6 minutes
Semi major axis: 6927 km
RCS: Unknown
Launch date: September 28, 2020
Source: United States (US)
Launch site: PLESETSK MISSILE AND SPACE COMPLEX (PKMTR)
aabbcc
Your satellite tracking list
Your tracking list is empty




NASA's NSSDC Master Catalog

Two Line Element Set (TLE):
1 46501U 20068R   22143.57978380  .00013612  00000-0  94503-3 0  9998
2 46501  97.7210  84.2907 0014038  25.5502 334.6486 15.05605906 90368
Source of the keplerian elements: AFSPC